Date String (YYYY-MM-DD hh:mm:ss) UTC,Instrument flags,Ambient pressure (hPa),Sample flow (lpm),Bypass flow (lpm),Sample temperature (°C),Ambient temperature (°C),ASC tube jacket temperature (°C),LED temperature (°C),Box temperature (°C),Sample RH (%),Span deviation,Mass concentration (μg/m³),Mass concentration (μg/m³),Mass concentration (μg/m³)
DateTimeUTC,F1_M11,P_M11,Q1_M11,Q2_M11,T1_M11,T2_M11,T3_M11,T4_M11,T5_M11,U1_M11,ZSPAN_M11,X0_M11,X2_M11,X1_M11
2023-05-13 09:00:00,,0836.1,5.00,0.00,24.1,22.8,00.0,32.3,25.7,27.9,0000.0,0004.50,0002.26,0001.83
2023-05-13 09:01:00,,0836.1,4.99,0.00,24.1,22.7,00.0,32.3,25.7,27.9,0000.0,0004.47,0002.29,0001.84
2023-05-13 09:02:00,,0836.1,5.00,0.00,24.1,22.8,00.0,32.3,25.7,27.9,0000.0,0004.56,0002.35,0001.87
2023-05-13 09:03:00,,0836.1,5.01,0.00,24.1,22.8,00.0,32.4,25.8,27.9,0000.0,0004.63,0002.42,0001.90
2023-05-13 09:04:00,,0836.2,5.01,0.00,24.1,22.7,00.0,32.4,25.8,28.0,0000.0,0004.51,0002.44,0001.92
2023-05-13 09:05:00,,0836.2,5.01,0.00,24.1,22.7,00.0,32.4,25.9,27.9,0000.0,0004.45,0002.43,0001.95
2023-05-13 09:06:00,,0836.2,5.01,0.00,24.1,22.7,00.0,32.4,25.9,27.9,0000.0,0003.96,0002.45,0001.99
2023-05-13 09:07:00,,0836.2,5.00,0.00,24.1,22.8,00.0,32.4,25.9,27.9,0000.0,0003.79,0002.47,0002.01
2023-05-13 09:08:00,,0836.2,5.00,0.00,24.2,22.8,00.0,32.4,25.9,27.9,0000.0,0003.91,0002.42,0002.01
2023-05-13 09:09:00,,0836.2,4.99,0.00,24.2,22.8,00.0,32.4,25.9,27.8,0000.0,0003.99,0002.41,0002.02
2023-05-13 09:10:00,,0836.2,4.99,0.00,24.2,22.8,00.0,32.4,25.9,27.7,0000.0,0003.96,0002.40,0002.03
2023-05-13 09:11:00,,0836.2,5.00,0.00,24.2,22.8,00.0,32.5,25.9,27.7,0000.0,0003.70,0002.42,0002.04
2023-05-13 09:12:00,,0836.2,5.01,0.00,24.2,22.8,00.0,32.5,25.9,27.8,0000.0,0003.66,0002.41,0002.04
2023-05-13 09:13:00,,0836.2,5.00,0.00,24.2,22.8,00.0,32.5,25.9,27.9,0000.0,0003.59,0002.39,0002.05
2023-05-13 09:14:00,,0836.2,5.00,0.00,24.2,22.8,00.0,32.5,26.0,27.8,0000.0,0003.50,0002.36,0002.04
2023-05-13 09:15:00,,0836.2,5.01,0.00,24.2,22.9,00.0,32.5,26.0,27.8,0000.0,0003.73,0002.43,0002.06
2023-05-13 09:16:00,,0836.2,5.01,0.00,24.2,22.9,00.0,32.5,26.0,27.7,0000.0,0003.79,0002.46,0002.06
2023-05-13 09:17:00,,0836.2,5.00,0.00,24.3,22.9,00.0,32.5,26.0,27.7,0000.0,0003.86,0002.49,0002.06
2023-05-13 09:18:00,,0836.2,4.99,0.00,24.3,22.9,00.0,32.5,26.0,27.8,0000.0,0003.87,0002.51,0002.09
2023-05-13 09:19:00,,0836.1,4.99,0.00,24.3,22.8,00.0,32.5,25.9,27.7,0000.0,0003.80,0002.57,0002.12
2023-05-13 09:20:00,,0836.1,5.00,0.00,24.3,22.8,00.0,32.5,25.9,27.6,0000.0,0003.62,0002.59,0002.13
2023-05-13 09:21:00,,0836.1,5.01,0.00,24.2,22.7,00.0,32.6,25.9,27.6,0000.0,0003.59,0002.61,0002.16
2023-05-13 09:22:00,,0836.2,5.01,0.00,24.2,22.7,00.0,32.6,25.9,27.5,0000.0,0003.49,0002.60,0002.17
2023-05-13 09:23:00,,0836.1,5.00,0.00,24.2,22.6,00.0,32.6,25.8,27.6,0000.0,0003.47,0002.61,0002.18
2023-05-13 09:24:00,,0836.2,4.99,0.00,24.2,22.6,00.0,32.6,25.8,27.6,0000.0,0004.29,0002.63,0002.19
2023-05-13 09:25:00,,0836.2,5.01,0.00,24.2,22.6,00.0,32.6,25.8,27.6,0000.0,0005.84,0002.63,0002.19
2023-05-13 09:26:00,,0836.2,5.00,0.00,24.2,22.6,00.0,32.6,25.7,27.7,0000.0,0005.69,0002.58,0002.17
2023-05-13 09:27:00,,0836.2,5.01,0.00,24.2,22.6,00.0,32.6,25.7,27.8,0000.0,0005.59,0002.54,0002.15
2023-05-13 09:28:00,,0836.2,5.00,0.00,24.2,22.6,00.0,32.6,25.7,27.9,0000.0,0005.60,0002.54,0002.15
2023-05-13 09:29:00,,0836.3,4.99,0.00,24.2,22.6,00.0,32.6,25.7,28.1,0000.0,0005.72,0002.57,0002.14
2023-05-13 09:30:00,,0836.3,5.00,0.00,24.2,22.6,00.0,32.6,25.8,28.1,0000.0,0005.72,0002.55,0002.12
2023-05-13 09:31:00,,0836.2,5.01,0.00,24.2,22.7,00.0,32.6,25.9,27.9,0000.0,0005.68,0002.53,0002.10
2023-05-13 09:32:00,,0836.2,5.00,0.00,24.2,22.7,00.0,32.6,25.9,27.8,0000.0,0006.26,0002.56,0002.10
2023-05-13 09:33:00,,0836.2,5.00,0.00,24.2,22.7,00.0,32.6,25.9,27.9,0000.0,0006.93,0002.56,0002.08
2023-05-13 09:34:00,,0836.1,5.00,0.00,24.2,22.7,00.0,32.6,25.9,27.7,0000.0,0006.91,0002.54,0002.07
2023-05-13 09:35:00,,0836.2,5.00,0.00,24.2,22.8,00.0,32.6,25.9,27.5,0000.0,0006.56,0002.50,0002.06
2023-05-13 09:36:00,,0836.1,5.01,0.00,24.2,22.8,00.0,32.6,25.9,27.6,0000.0,0004.87,0002.49,0002.04
2023-05-13 09:37:00,,0836.1,5.00,0.00,24.2,22.8,00.0,32.6,25.9,27.9,0000.0,0004.57,0002.48,0002.03
2023-05-13 09:38:00,,0836.1,5.00,0.00,24.2,22.8,00.0,32.6,25.9,28.0,0000.0,0004.54,0002.47,0002.03
2023-05-13 09:39:00,,0836.1,5.00,0.00,24.2,22.8,00.0,32.6,25.9,27.8,0000.0,0004.51,0002.46,0002.02
2023-05-13 09:40:00,,0836.1,5.00,0.00,24.3,22.8,00.0,32.6,25.9,27.6,0000.0,0004.41,0002.41,0002.01
2023-05-13 09:41:00,,0836.1,4.99,0.00,24.3,22.8,00.0,32.6,25.9,27.6,0000.0,0004.32,0002.38,0001.98
2023-05-13 09:42:00,,0836.1,5.00,0.00,24.2,22.8,00.0,32.6,25.9,27.8,0000.0,0004.42,0002.39,0001.97
2023-05-13 09:43:00,,0836.1,5.01,0.00,24.3,22.8,00.0,32.6,25.9,27.9,0000.0,0004.14,0002.33,0001.93
2023-05-13 09:44:00,,0836.1,5.01,0.00,24.3,22.8,00.0,32.6,25.9,27.8,0000.0,0003.34,0002.28,0001.89
2023-05-13 09:45:00,,0836.2,4.98,0.00,24.3,22.8,00.0,32.6,26.0,27.8,0000.0,0003.36,0002.23,0001.85
2023-05-13 09:46:00,,0836.2,5.00,0.00,24.3,22.8,00.0,32.6,26.0,27.8,0000.0,0003.40,0002.22,0001.81
2023-05-13 09:47:00,,0836.2,5.01,0.00,24.3,22.8,00.0,32.6,26.0,27.8,0000.0,0003.40,0002.21,0001.79
2023-05-13 09:48:00,,0836.2,5.00,0.00,24.3,22.8,00.0,32.6,26.0,27.9,0000.0,0003.35,0002.18,0001.77
2023-05-13 09:49:00,,0836.2,5.00,0.00,24.3,22.8,00.0,32.6,26.0,27.8,0000.0,0003.26,0002.12,0001.73
2023-05-13 09:50:00,,0836.3,4.99,0.00,24.3,22.8,00.0,32.6,26.0,27.8,0000.0,0003.21,0002.09,0001.71
2023-05-13 09:51:00,,0836.2,5.00,0.00,24.3,22.8,00.0,32.6,26.0,27.7,0000.0,0003.15,0002.03,0001.68
2023-05-13 09:52:00,,0836.2,5.01,0.00,24.3,22.8,00.0,32.6,26.0,27.7,0000.0,0003.10,0002.00,0001.68
2023-05-13 09:53:00,,0836.2,5.01,0.00,24.3,22.8,00.0,32.6,26.0,27.7,0000.0,0002.97,0001.96,0001.66
2023-05-13 09:54:00,,0836.1,5.01,0.00,24.3,22.8,00.0,32.6,26.0,27.6,0000.0,0002.99,0001.95,0001.66
2023-05-13 09:55:00,,0836.2,5.00,0.00,24.3,22.7,00.0,32.6,26.0,27.5,0000.0,0002.88,0001.95,0001.66
2023-05-13 09:56:00,,0836.1,4.99,0.00,24.3,22.7,00.0,32.6,25.9,27.5,0000.0,0002.80,0001.97,0001.68
2023-05-13 09:57:00,,0836.1,4.99,0.00,24.3,22.7,00.0,32.6,26.0,27.4,0000.0,0002.78,0001.98,0001.71
2023-05-13 09:58:00,,0836.1,5.00,0.00,24.3,22.7,00.0,32.6,25.9,27.4,0000.0,0002.74,0001.97,0001.72
2023-05-13 09:59:00,,0836.2,5.01,0.00,24.3,22.7,00.0,32.6,25.9,27.4,0000.0,0003.38,0002.01,0001.72
